Goshen, IN

1:06 PM EDT on April 26, 2017 (GMT -0400)
Goshen Municipal

Weather History for KGSH - November, 2014

Change the Weather History Date:

Friday, November 14, 2014

  Actual Average Record
Temperature  
Mean Temperature 26 °F -  
Max Temperature 32 °F 48 °F 69 °F (1956)
Min Temperature 19 °F 31 °F 11 °F (1986)
Degree Days  
Heating Degree Days 40    
Moisture  
Dew Point 21 °F    
Average Humidity 77    
Maximum Humidity 92    
Minimum Humidity 69    
Precipitation  
Precipitation 0.00 in - - ()
Sea Level Pressure  
Sea Level Pressure 30.32 in    
Wind  
Wind Speed 10 mph (West)    
Max Wind Speed 15 mph    
Max Gust Speed 21 mph    
Visibility 10 miles    
Events      
Averages and records for this station are not official NWS values.
T = Trace of Precipitation, MM = Missing Value Source: NWS Daily Summary

Daily Weather History Graph

Daily Weather History Graph

Search for Another Location

Airport or City:

Trip Planner

Search our weather history database for the weather conditions in past years. The results will help you decide how hot, cold, wet, or windy it might be!

Date:

Astronomy

Nov. 14, 2014 Rise Set
Actual Time 7:30 AM EST 5:24 PM EST
Civil Twilight 7:00 AM EST 5:53 PM EST
Nautical Twilight 6:27 AM EST 6:27 PM EST
Astronomical Twilight 5:54 AM EST 6:59 PM EST
Moon No Moon Rise 1:20 PM EST (11/14)
Length of Visible Light 10h 52m
Length of Day
9h 53m
Waning Gibbous, 49% of the Moon is Illuminated
Nov 14
Waning Gibbous
Nov 22
New
Nov 29
First Quarter
Dec 6
Full
Dec 14
Last Quarter

Hourly Weather History & Observations

Time (EST) Temp. Windchill Dew Point Humidity Pressure Visibility Wind Dir Wind Speed Gust Speed Precip Events Conditions
12:53 AM 21.9 °F 11.0 °F 19.0 °F 89% 30.27 in 10.0 mi WSW 10.4 mph - N/A   Clear
1:53 AM 21.9 °F 11.0 °F 19.0 °F 89% 30.27 in 10.0 mi WSW 10.4 mph - N/A   Mostly Cloudy
2:53 AM 21.0 °F 12.4 °F 18.0 °F 88% 30.28 in 10.0 mi WSW 6.9 mph - N/A   Scattered Clouds
3:53 AM 19.9 °F 13.4 °F 18.0 °F 92% 30.28 in 10.0 mi SW 4.6 mph - N/A   Mostly Cloudy
4:53 AM 21.9 °F - 19.0 °F 89% 30.28 in 10.0 mi Calm Calm - N/A   Overcast
5:53 AM 25.0 °F 13.1 °F 21.0 °F 85% 30.29 in 10.0 mi West 13.8 mph - N/A   Overcast
6:53 AM 24.1 °F 12.0 °F 19.9 °F 84% 30.30 in 10.0 mi WSW 13.8 mph - N/A   Overcast
7:53 AM 24.1 °F 12.5 °F 19.9 °F 84% 30.31 in 10.0 mi West 12.7 mph - N/A   Overcast
8:53 AM 25.0 °F 15.5 °F 19.9 °F 81% 30.33 in 10.0 mi West 9.2 mph - N/A   Overcast
9:53 AM 27.0 °F 17.3 °F 21.0 °F 78% 30.34 in 10.0 mi West 10.4 mph - N/A   Overcast
10:53 AM 28.0 °F 18.6 °F 21.9 °F 78% 30.35 in 10.0 mi West 10.4 mph - N/A   Overcast
11:53 AM 30.0 °F 21.1 °F 23.0 °F 75% 30.35 in 10.0 mi WNW 10.4 mph - N/A   Mostly Cloudy
12:35 PM 30.9 °F 20.7 °F 21.9 °F 69% 30.30 in 10.0 mi West 13.8 mph - N/A   Overcast
12:53 PM 30.9 °F 20.2 °F 21.9 °F 69% 30.33 in 10.0 mi West 15.0 mph - N/A   Overcast
1:14 PM 30.9 °F 20.2 °F 21.9 °F 69% 30.30 in 10.0 mi WNW 15.0 mph 20.7 mph N/A   Overcast
1:33 PM 30.9 °F 20.7 °F 21.9 °F 69% 30.29 in 10.0 mi WNW 13.8 mph - N/A   Overcast
1:53 PM 30.9 °F 20.2 °F 21.9 °F 69% 30.33 in 10.0 mi West 15.0 mph - N/A   Overcast
2:53 PM 30.9 °F 20.7 °F 21.9 °F 69% 30.33 in 10.0 mi West 13.8 mph - N/A   Overcast
3:24 PM 32.0 °F 22.5 °F 23.0 °F 69% 30.30 in 10.0 mi West 12.7 mph - N/A   Overcast
3:31 PM 30.9 °F 21.2 °F 21.9 °F 69% 30.30 in 10.0 mi WNW 12.7 mph - N/A   Mostly Cloudy
3:53 PM 30.0 °F 19.5 °F 21.9 °F 72% 30.34 in 10.0 mi West 13.8 mph - N/A   Scattered Clouds
4:14 PM 28.9 °F 19.2 °F 21.0 °F 72% 30.31 in 10.0 mi West 11.5 mph - N/A   Mostly Cloudy
4:33 PM 28.0 °F 18.6 °F 21.0 °F 75% 30.31 in 10.0 mi West 10.4 mph - N/A   Scattered Clouds
4:53 PM 28.0 °F 18.6 °F 21.0 °F 75% 30.35 in 10.0 mi West 10.4 mph - N/A   Partly Cloudy
5:53 PM 27.0 °F 20.5 °F 21.0 °F 78% 30.35 in 10.0 mi NW 5.8 mph - N/A   Overcast
6:53 PM 28.0 °F 24.2 °F 21.0 °F 75% 30.36 in 10.0 mi NW 3.5 mph - N/A   Overcast
7:53 PM 27.0 °F 20.5 °F 21.9 °F 81% 30.37 in 10.0 mi West 5.8 mph - N/A   Overcast
8:53 PM 27.0 °F 19.5 °F 19.9 °F 75% 30.37 in 10.0 mi West 6.9 mph - N/A   Overcast
9:53 PM 27.0 °F 20.5 °F 19.9 °F 75% 30.38 in 10.0 mi WSW 5.8 mph - N/A   Overcast
10:53 PM 25.0 °F 18.1 °F 17.1 °F 72% 30.39 in 10.0 mi WSW 5.8 mph - N/A   Overcast
11:53 PM 24.1 °F 16.0 °F 17.1 °F 75% 30.39 in 10.0 mi WSW 6.9 mph - N/A   Overcast